Flag for U.S.A. Weather past 2 weeks in Barrow, Alaska, U.S.A.

Now
26 °F

Passing clouds.


Feels Like: 11 °F
Forecast: 20 / 22 °F
Wind: 25 mph from West

Location: Post Rogers Memorial Airport

Current Time: Feb 27, 2015 at 3:44:52 AM

Latest Report: Feb 27, 2015 at 2:53 AM


Visibility: 6 mi

Pressure: 29.79 "Hg

Humidity: 92%

Dew point: 24 °F

Location of BarrowLocation

Historic Weather in Barrow — Graph

°F

Barrow temperature yesterday

Maximum temperature yesterday: 29 °F (at 11:53 PM)
Minimum temperature yesterday: 20 °F (at 12:53 AM)
Average temperature yesterday: 24 °F

Past Weeks' High & Low Weather Summary

 TemperatureHumidityPressure
High30 °F (Feb 27, 12:53 AM)100% (Feb 24, 2:02 PM)30.68 "Hg (Feb 24, 2:02 PM)
Low-28 °F (Feb 14, 1:53 AM)69% (Feb 12, 1:53 AM)29.62 "Hg (Feb 18, 6:53 AM)
Average-2 °F82%30.08 "Hg
* Reported Feb 12 1:53 AM — Feb 27 1:53 AM, Barrow, Weather by CustomWeather, © 2015

Note: Actual official high and low records may vary slightly from our data, if they occured in-between our weather recording intervals... More about our weather records

Advertising

Barrow weather history for previous 24 hours

 ConditionsComfort  
Time TempWeatherWind HumidityBarometerVisibility
1:53 AM
Fri, Feb 27
29 °FOvercast.25 mph96%29.76 "Hg6 mi
12:53 AM30 °FLight snow. Mostly cloudy.24 mph96%29.74 "Hg2 mi
11:53 PM
Thu, Feb 26
29 °FLight snow. Mostly cloudy.23 mph96%29.74 "Hg2 mi
10:53 PM28 °FLight snow. Overcast.21 mph100%29.75 "Hg2 mi
9:53 PM28 °FLight snow. Overcast.20 mph96%29.77 "Hg1 mi
9:00 PM26 °FLight snow. Overcast.10 mph96%29.78 "Hg2 mi
7:53 PM22 °FLight snow. Low clouds.5 mph96%29.80 "Hg2 mi
6:53 PM22 °FLight snow. Overcast.3 mph96%29.82 "Hg2 mi
5:57 PM22 °FLight snow. More clouds than sun.7 mph96%29.84 "Hg3 mi
4:53 PM24 °FMore clouds than sun.6 mph91%29.85 "Hg9 mi
3:53 PM24 °FLow clouds.12 mph91%29.86 "Hg10 mi
2:53 PM25 °FLow clouds.16 mph92%29.86 "Hg10 mi
2:01 PM26 °FOvercast.22 mph92%29.85 "Hg7 mi
12:53 PM27 °FLight snow. Mostly cloudy.18 mph92%29.84 "Hg9 mi
11:53 AM27 °FLight snow. Overcast.20 mph96%29.83 "Hg6 mi
10:56 AM27 °FLight snow. Mostly cloudy.21 mph96%29.80 "Hg3 mi
9:58 AM26 °FLight snow. Mostly cloudy.20 mph96%29.79 "Hg2 mi
9:02 AM24 °FLight snow. Overcast.15 mph96%29.79 "Hg2 mi
8:57 AM24 °FLight snow. Overcast.16 mph96%29.79 "Hg2 mi
7:53 AM22 °FLight snow. Mostly cloudy.18 mph100%29.79 "Hg6 mi
6:53 AM22 °FOvercast.20 mph96%29.80 "Hg4 mi
5:53 AM21 °FOvercast.23 mph96%29.80 "Hg2 mi
4:53 AM20 °FLight snow. Overcast.24 mph100%29.81 "Hg1 mi
4:04 AM21 °FLight snow. Overcast.26 mph96%29.82 "Hg1 mi
3:53 AM20 °FLight snow. Overcast.26 mph100%29.83 "Hg1 mi
Weather by CustomWeather, © 2015

See weather overviewHow to use our weather pages